FW8253 Weather Reports


time (UTC)temp
C
wind
direction
speed
KPH
gust
KPH
rain 1hr
cm
rain 24hr
cm
rain mn
cm
humidity
%
barometer
mb
20260505031929 15 210 0.0 0.0 0.00 0.00 0.00 82 1018.2
20260505031426 15 209 0.0 0.0 0.00 0.00 0.00 81 1017.9
20260505030923 15 210 0.0 0.0 0.00 0.00 0.00 81 1018.2
20260505030419 15 210 0.0 0.0 0.00 0.00 0.00 80 1018.4
20260505025915 15 207 0.0 0.0 0.00 0.00 0.00 81 1018.2
20260505025412 15 206 0.0 0.0 0.00 0.00 0.00 81 1018.5
20260505024911 15 207 0.0 0.0 0.00 0.00 0.00 80 1018.2
20260505024408 16 206 0.0 0.0 0.00 0.00 0.00 81 1018.0
20260505023905 16 223 0.0 0.0 0.00 0.00 0.00 81 1018.1
20260505023402 16 207 0.0 0.0 0.00 0.00 0.00 81 1017.9
20260505022859 16 175 0.0 0.0 0.00 0.00 0.00 82 1017.9
20260505022356 16 175 0.0 0.0 0.00 0.00 0.00 81 1017.9
20260505021854 16 175 0.0 0.0 0.00 0.00 0.00 81 1018.1
20260505021350 16 175 0.0 0.0 0.00 0.00 0.00 82 1017.8
20260505020846 16 175 0.0 0.0 0.00 0.00 0.00 81 1017.9
20260505020341 16 175 0.0 0.0 0.00 0.00 0.00 82 1017.8
20260505015839 16 175 0.0 0.0 0.00 0.00 0.00 81 1017.6
20260505015336 16 175 0.0 0.0 0.00 0.00 0.00 81 1017.6
20260505014833 16 175 0.0 0.0 0.00 0.00 0.00 81 1017.6
20260505014330 16 175 0.0 0.0 0.00 0.00 0.00 81 1017.4
20260505013826 16 177 0.0 0.0 0.00 0.00 0.00 81 1017.4
20260505013324 16 182 0.0 0.0 0.00 0.00 0.00 81 1017.5
20260505012822 16 182 0.0 0.0 0.00 0.00 0.00 82 1017.1
20260505012319 16 183 0.0 0.0 0.00 0.00 0.00 83 1017.2
20260505011815 16 182 0.0 0.0 0.00 0.00 0.00 83 1017.1
20260505011312 16 182 0.0 0.0 0.00 0.00 0.00 85 1017.1
20260505010808 16 182 0.0 0.0 0.00 0.00 0.00 87 1016.9
20260505010304 16 182 0.0 0.0 0.00 0.00 0.00 87 1016.8
20260505005801 16 182 0.0 0.0 0.00 0.00 0.00 87 1016.9
20260505005258 17 183 0.0 0.0 0.00 0.00 0.00 86 1016.6
20260505004755 17 183 0.0 0.0 0.00 0.00 0.00 85 1016.6
20260505004251 17 183 0.0 0.0 0.00 0.00 0.00 84 1016.4
20260505003748 17 183 0.0 0.0 0.00 0.00 0.00 84 1016.4
20260505003246 17 183 0.0 0.0 0.00 0.00 0.00 82 1016.4
20260505002742 18 183 0.0 0.0 0.00 0.00 0.00 81 1016.2
20260505002240 18 183 0.0 0.0 0.00 0.00 0.00 80 1016.4
20260505001737 18 183 0.0 0.0 0.00 0.00 0.00 77 1016.3
20260505001235 18 183 0.0 0.0 0.00 0.00 0.00 76 1016.3
20260505000731 19 183 0.0 0.0 0.00 0.00 0.00 74 1016.3
20260505000229 19 183 0.0 0.0 0.00 0.00 0.00 72 1016.3
20260504235725 20 183 0.0 0.0 0.00 0.00 0.00 71 1016.4
20260504235221 20 183 0.0 0.0 0.00 0.00 0.00 71 1016.3
20260504234719 20 183 0.0 0.0 0.00 0.00 0.00 70 1016.2
20260504234216 21 183 0.0 0.0 0.00 0.00 0.00 68 1016.2
20260504233712 21 183 0.0 0.0 0.00 0.00 0.00 66 1016.0
20260504233208 21 183 0.0 0.0 0.00 0.00 0.00 65 1015.9
20260504232706 21 183 0.0 0.0 0.00 0.00 0.00 63 1016.1
20260504232203 22 183 0.0 0.0 0.00 0.00 0.00 62 1016.1
20260504231659 22 183 0.0 0.0 0.00 0.00 0.00 63 1016.0
20260504231155 22 183 0.0 0.0 0.00 0.00 0.00 62 1016.1
20260504230652 23 183 0.0 0.0 0.00 0.00 0.00 61 1016.1
20260504230151 23 183 0.0 0.0 0.00 0.00 0.00 56 1015.9
20260504225649 23 183 0.0 0.0 0.00 0.00 0.00 55 1016.2
20260504225144 23 183 0.0 0.0 0.00 0.00 0.00 53 1016.2
20260504224642 23 184 0.0 0.0 0.00 0.00 0.00 50 1016.2
20260504224138 23 184 0.0 0.0 0.00 0.00 0.00 52 1016.2
20260504223636 24 184 0.0 0.0 0.00 0.00 0.00 47 1016.2
20260504223131 24 184 0.0 0.0 0.00 0.00 0.00 52 1016.2
20260504222628 24 184 0.0 0.0 0.00 0.00 0.00 53 1016.1
20260504222125 24 184 0.0 0.0 0.00 0.00 0.00 50 1016.4
20260504221623 24 184 0.0 0.0 0.00 0.00 0.00 49 1016.2
20260504221119 24 184 0.0 0.0 0.00 0.00 0.00 48 1016.5
20260504220616 25 184 0.0 0.0 0.00 0.00 0.00 44 1016.2
20260504220114 24 184 0.0 0.0 0.00 0.00 0.00 51 1016.4
20260504215609 25 184 0.0 0.0 0.00 0.00 0.00 48 1016.3
20260504215107 25 183 0.0 0.0 0.00 0.00 0.00 45 1016.2
20260504214603 25 210 0.0 0.0 0.00 0.00 0.00 45 1016.2
20260504214059 26 228 0.0 0.0 0.00 0.00 0.00 43 1016.2
20260504213556 26 245 0.0 0.0 0.00 0.00 0.00 44 1016.1
20260504213053 26 232 0.0 0.0 0.00 0.00 0.00 43 1016.2
20260504212549 27 247 0.0 0.0 0.00 0.00 0.00 42 1016.0
20260504212046 27 248 0.0 0.0 0.00 0.00 0.00 44 1016.0
20260504211543 26 248 0.0 0.0 0.00 0.00 0.00 37 1016.1
20260504211040 27 249 0.0 0.0 0.00 0.00 0.00 35 1016.3
20260504210537 26 247 0.0 0.0 0.00 0.00 0.00 41 1016.3
20260504210034 27 247 0.0 0.0 0.00 0.00 0.00 38 1016.2
20260504205532 27 231 0.0 0.0 0.00 0.00 0.00 37 1016.4
20260504205029 27 203 0.0 0.0 0.00 0.00 0.00 41 1016.5
20260504204527 27 249 0.0 0.0 0.00 0.00 0.00 36 1016.4
20260504204026 27 228 0.0 0.0 0.00 0.00 0.00 40 1016.5
20260504203523 27 273 0.0 0.0 0.00 0.00 0.00 33 1016.6
20260504203021 27 243 0.0 0.0 0.00 0.00 0.00 41 1016.6
20260504202516 27 245 0.0 0.0 0.00 0.00 0.00 37 1016.6
20260504202013 27 216 0.0 0.0 0.00 0.00 0.00 42 1016.7
20260504201510 27 203 0.0 0.0 0.00 0.00 0.00 37 1016.6
20260504201008 27 234 0.0 0.0 0.00 0.00 0.00 39 1016.4
20260504200504 27 250 0.0 0.0 0.00 0.00 0.00 40 1016.8
20260504200001 27 232 0.0 0.0 0.00 0.00 0.00 36 1016.7
20260504195457 27 244 0.0 0.0 0.00 0.00 0.00 37 1016.9
20260504194954 27 236 0.0 0.0 0.00 0.00 0.00 39 1017.2
20260504194450 27 246 0.0 0.0 0.00 0.00 0.00 39 1017.0
20260504193945 27 173 0.0 0.0 0.00 0.00 0.00 37 1017.0
20260504193443 27 231 0.0 0.0 0.00 0.00 0.00 40 1016.9
20260504192942 28 223 0.0 0.0 0.00 0.00 0.00 37 1017.1
20260504192438 28 229 0.0 0.0 0.00 0.00 0.00 40 1017.2
20260504191937 27 43 0.0 0.0 0.00 0.00 0.00 36 1017.4
20260504191435 27 280 0.0 0.0 0.00 0.00 0.00 38 1017.3
20260504190930 27 72 0.0 0.0 0.00 0.00 0.00 34 1017.4
20260504190426 27 193 0.0 0.0 0.00 0.00 0.00 40 1017.5
20260504185923 27 190 0.0 0.0 0.00 0.00 0.00 34 1017.6
20260504185420 27 250 0.0 0.0 0.00 0.00 0.00 38 1017.6
20260504184916 27 247 0.0 0.0 0.00 0.00 0.00 37 1017.8
20260504184412 27 79 0.0 0.0 0.00 0.00 0.00 36 1017.7
20260504183908 26 74 0.0 0.0 0.00 0.00 0.00 39 1017.8
20260504183405 26 74 0.0 0.0 0.00 0.00 0.00 38 1017.8
20260504182903 26 73 0.0 0.0 0.00 0.00 0.00 36 1018.0
20260504182400 26 74 0.0 0.0 0.00 0.00 0.00 35 1017.9
20260504181856 26 112 0.0 0.0 0.00 0.00 0.00 35 1017.9
20260504181354 26 138 0.0 0.0 0.00 0.00 0.00 35 1017.8
20260504180853 26 116 0.0 0.0 0.00 0.00 0.00 34 1018.2
20260504180351 27 124 0.0 0.0 0.00 0.00 0.00 34 1018.2
20260504175849 26 124 0.0 0.0 0.00 0.00 0.00 39 1018.3
20260504175345 26 116 0.0 0.0 0.00 0.00 0.00 35 1018.2
20260504174843 26 114 0.0 0.0 0.00 0.00 0.00 33 1018.4
20260504174341 27 71 0.0 0.0 0.00 0.00 0.00 36 1018.4
20260504173837 26 71 0.0 0.0 0.00 0.00 0.00 36 1018.6
20260504173334 26 304 0.0 0.0 0.00 0.00 0.00 36 1018.5
20260504172831 26 344 0.0 0.0 0.00 0.00 0.00 39 1018.6
20260504172328 25 351 0.0 0.0 0.00 0.00 0.00 39 1018.5
20260504171824 26 47 0.0 0.0 0.00 0.00 0.00 39 1018.8
20260504171321 26 52 0.0 0.0 0.00 0.00 0.00 36 1018.8
20260504170818 26 56 0.0 0.0 0.00 0.00 0.00 41 1018.8
20260504170315 25 59 0.0 0.0 0.00 0.00 0.00 40 1018.8
20260504160233 24 349 0.0 0.0 0.00 0.00 0.00 43 1019.4
20260504150659 22 287 0.0 0.0 0.00 0.00 0.00 53 1020.1
20260504150155 22 207 0.0 0.0 0.00 0.00 0.00 56 1020.0
20260504141124 20 227 0.0 0.0 0.00 0.00 0.00 66 1020.2
20260504140621 18 238 0.0 0.0 0.00 0.00 0.00 64 1020.4
20260504140117 18 233 0.0 0.0 0.00 0.00 0.00 66 1020.4
20260504130545 12 177 0.0 0.0 0.00 0.00 0.00 99 1020.5
20260504110433 6 177 0.0 0.0 0.00 0.00 0.00 99 1020.0
20260504100349 7 177 0.0 0.0 0.00 0.00 0.00 99 1019.8
20260504081743 8 177 0.0 0.0 0.00 0.00 0.00 99 1019.1
20260504081239 8 177 0.0 0.0 0.00 0.00 0.00 99 1019.2
20260504080735 8 177 0.0 0.0 0.00 0.00 0.00 99 1019.3
20260504080232 8 177 0.0 0.0 0.00 0.00 0.00 99 1019.4
20260504070200 8 177 0.0 0.0 0.00 0.00 0.00 99 1019.5
20260504060120 8 207 0.0 0.0 0.00 0.00 0.00 99 1020.2
20260504050548 8 207 0.0 0.0 0.00 0.00 0.00 98 1020.1
20260504045542 8 207 0.0 0.0 0.00 0.00 0.00 98 1020.0
20260504045037 8 207 0.0 0.0 0.00 0.00 0.00 98 1019.9
20260504044535 8 207 0.0 0.0 0.00 0.00 0.00 98 1020.0
20260504044032 8 207 0.0 0.0 0.00 0.00 0.00 98 1019.9
20260504043529 8 207 0.0 0.0 0.00 0.00 0.00 98 1019.8
20260504043026 8 207 0.0 0.0 0.00 0.00 0.00 98 1019.7
20260504042523 8 207 0.0 0.0 0.00 0.00 0.00 98 1019.7
20260504042020 8 207 0.0 0.0 0.00 0.00 0.00 98 1019.6
20260504041516 8 207 0.0 0.0 0.00 0.00 0.00 97 1019.6
20260504041012 8 207 0.0 0.0 0.00 0.00 0.00 97 1019.6
20260504040510 8 207 0.0 0.0 0.00 0.00 0.00 97 1019.7
20260504040006 8 207 0.0 0.0 0.00 0.00 0.00 97 1019.7
20260504035503 8 207 0.0 0.0 0.00 0.00 0.00 97 1019.6
20260504034959 8 207 0.0 0.0 0.00 0.00 0.00 97 1019.7
20260504034457 8 207 0.0 0.0 0.00 0.00 0.00 96 1019.4
20260504033954 9 207 0.0 0.0 0.00 0.00 0.00 96 1019.5
20260504033452 9 207 0.0 0.0 0.00 0.00 0.00 96 1019.8
20260504032949 9 207 0.0 0.0 0.00 0.00 0.00 95 1019.5
20260504032446 9 207 0.0 0.0 0.00 0.00 0.00 96 1019.6